Time,TemperatureF,DewpointF,PressureIn,WindDirection,WindDirectionDegrees,WindSpeedMPH,WindSpeedGustMPH,Humidity,HourlyPrecipIn,Conditions,Clouds,dailyrainin,SolarRadiationWatts/m^2,SoftwareType,DateUTC
2014-04-20 00:22:00,58.0,48.0,-100.00,North,5,1.0,5.0,69,0.00,,,0.00,0.000000,,2014-04-20 07:22:00,
2014-04-20 00:32:00,58.0,48.0,-100.00,North,5,1.0,5.0,69,0.00,,,0.00,0.000000,,2014-04-20 07:32:00,
2014-04-20 00:42:00,58.0,48.0,-100.00,North,5,1.0,5.0,69,0.00,,,0.00,0.000000,,2014-04-20 07:42:00,
2014-04-20 00:52:00,58.0,48.0,-100.00,North,5,1.0,5.0,69,0.00,,,0.00,0.000000,,2014-04-20 07:52:00,
2014-04-20 01:21:00,56.0,49.0,-100.00,North,11,4.0,5.0,77,0.00,,,0.00,0.000000,,2014-04-20 08:21:00,
2014-04-20 01:32:00,56.0,49.0,-100.00,North,11,4.0,5.0,77,0.00,,,0.00,0.000000,,2014-04-20 08:32:00,
2014-04-20 01:43:00,56.0,49.0,-100.00,North,11,4.0,5.0,77,0.00,,,0.00,0.000000,,2014-04-20 08:43:00,
2014-04-20 01:52:00,56.0,49.0,-100.00,North,11,4.0,5.0,77,0.00,,,0.00,0.000000,,2014-04-20 08:52:00,
2014-04-20 02:22:00,54.0,48.0,-100.00,SSW,200,1.0,4.0,81,0.00,,,0.00,0.000000,,2014-04-20 09:22:00,
2014-04-20 02:33:00,54.0,48.0,-100.00,SSW,200,1.0,4.0,81,0.00,,,0.00,0.000000,,2014-04-20 09:33:00,
2014-04-20 02:43:00,54.0,48.0,-100.00,SSW,200,1.0,4.0,81,0.00,,,0.00,0.000000,,2014-04-20 09:43:00,
2014-04-20 02:53:00,54.0,48.0,-100.00,SSW,200,1.0,4.0,81,0.00,,,0.00,0.000000,,2014-04-20 09:53:00,
2014-04-20 03:23:00,56.0,47.0,-100.00,NW,309,1.0,5.0,71,0.00,,,0.00,0.000000,,2014-04-20 10:23:00,
2014-04-20 03:33:00,56.0,47.0,-100.00,NW,309,1.0,5.0,71,0.00,,,0.00,0.000000,,2014-04-20 10:33:00,
2014-04-20 03:42:00,56.0,47.0,-100.00,NW,309,1.0,5.0,71,0.00,,,0.00,0.000000,,2014-04-20 10:42:00,
2014-04-20 03:53:00,56.0,47.0,-100.00,NW,309,1.0,5.0,71,0.00,,,0.00,0.000000,,2014-04-20 10:53:00,
2014-04-20 04:22:00,55.0,47.0,-100.00,SSE,168,2.0,4.0,74,0.00,,,0.00,0.000000,,2014-04-20 11:22:00,
2014-04-20 04:34:00,55.0,47.0,-100.00,SSE,168,2.0,4.0,74,0.00,,,0.00,0.000000,,2014-04-20 11:34:00,
2014-04-20 04:43:00,55.0,47.0,-100.00,SSE,168,2.0,4.0,74,0.00,,,0.00,0.000000,,2014-04-20 11:43:00,
2014-04-20 04:52:00,55.0,47.0,-100.00,SSE,168,2.0,4.0,74,0.00,,,0.00,0.000000,,2014-04-20 11:52:00,
2014-04-20 05:22:00,52.0,45.0,-100.00,North,356,2.0,4.0,76,0.00,,,0.00,0.000000,,2014-04-20 12:22:00,
2014-04-20 05:32:00,52.0,45.0,-100.00,North,356,2.0,4.0,76,0.00,,,0.00,0.000000,,2014-04-20 12:32:00,
2014-04-20 05:42:00,52.0,45.0,-100.00,North,356,2.0,4.0,76,0.00,,,0.00,0.000000,,2014-04-20 12:42:00,
2014-04-20 05:52:00,52.0,45.0,-100.00,North,356,2.0,4.0,76,0.00,,,0.00,0.000000,,2014-04-20 12:52:00,
2014-04-20 06:22:00,50.0,46.0,-100.00,North,-999,0.0,2.0,85,0.00,,,0.00,0.000000,,2014-04-20 13:22:00,
2014-04-20 06:32:00,50.0,46.0,-100.00,North,-999,0.0,2.0,85,0.00,,,0.00,0.000000,,2014-04-20 13:32:00,
2014-04-20 06:42:00,50.0,46.0,-100.00,North,-999,0.0,2.0,85,0.00,,,0.00,0.000000,,2014-04-20 13:42:00,
2014-04-20 06:52:00,50.0,46.0,-100.00,North,-999,0.0,2.0,85,0.00,,,0.00,0.000000,,2014-04-20 13:52:00,
2014-04-20 07:22:00,50.0,45.0,-100.00,North,354,2.0,4.0,83,0.00,,,0.00,8.000000,,2014-04-20 14:22:00,
2014-04-20 07:32:00,50.0,45.0,-100.00,North,354,2.0,4.0,83,0.00,,,0.00,8.000000,,2014-04-20 14:32:00,
2014-04-20 07:42:00,50.0,45.0,-100.00,North,354,2.0,4.0,83,0.00,,,0.00,8.000000,,2014-04-20 14:42:00,
2014-04-20 07:52:00,50.0,45.0,-100.00,North,354,2.0,4.0,83,0.00,,,0.00,8.000000,,2014-04-20 14:52:00,
2014-04-20 08:21:00,54.0,49.0,-100.00,NNW,336,2.0,5.0,84,0.00,,,0.00,131.000000,,2014-04-20 15:21:00,
2014-04-20 08:33:00,54.0,49.0,-100.00,NNW,336,2.0,5.0,84,0.00,,,0.00,131.000000,,2014-04-20 15:33:00,
2014-04-20 08:43:00,54.0,49.0,-100.00,NNW,336,2.0,5.0,84,0.00,,,0.00,131.000000,,2014-04-20 15:43:00,
2014-04-20 08:53:00,54.0,49.0,-100.00,NNW,336,2.0,5.0,84,0.00,,,0.00,131.000000,,2014-04-20 15:53:00,
2014-04-20 09:23:00,62.0,51.0,-100.00,North,4,4.0,6.0,68,0.00,,,-99.99,318.000000,,2014-04-20 16:23:00,
2014-04-20 09:33:00,62.0,51.0,-100.00,North,4,4.0,6.0,68,0.00,,,-99.99,318.000000,,2014-04-20 16:33:00,
2014-04-20 09:43:00,62.0,51.0,-100.00,North,4,4.0,6.0,68,0.00,,,-99.99,318.000000,,2014-04-20 16:43:00,
2014-04-20 09:53:00,62.0,51.0,-100.00,North,4,4.0,6.0,68,0.00,,,-99.99,318.000000,,2014-04-20 16:53:00,
2014-04-20 10:22:00,69.0,50.0,-100.00,North,354,5.0,9.0,50,0.00,,,0.00,414.000000,,2014-04-20 17:22:00,
2014-04-20 10:33:00,69.0,50.0,-100.00,North,354,5.0,9.0,50,0.00,,,0.00,414.000000,,2014-04-20 17:33:00,
2014-04-20 10:43:00,69.0,50.0,-100.00,North,354,5.0,9.0,50,0.00,,,0.00,414.000000,,2014-04-20 17:43:00,
2014-04-20 10:52:00,69.0,50.0,-100.00,North,354,5.0,9.0,50,0.00,,,0.00,414.000000,,2014-04-20 17:52:00,
2014-04-20 11:22:00,74.0,40.0,-100.00,NNW,335,8.0,14.0,29,0.00,,,0.00,586.000000,,2014-04-20 18:22:00,
2014-04-20 11:32:00,74.0,40.0,-100.00,NNW,335,8.0,14.0,29,0.00,,,0.00,586.000000,,2014-04-20 18:32:00,
2014-04-20 11:42:00,74.0,40.0,-100.00,NNW,335,8.0,14.0,29,0.00,,,0.00,586.000000,,2014-04-20 18:42:00,
2014-04-20 11:52:00,74.0,40.0,-100.00,NNW,335,8.0,14.0,29,0.00,,,0.00,586.000000,,2014-04-20 18:52:00,
2014-04-20 12:22:00,78.0,39.0,-100.00,NNW,337,8.0,16.0,25,0.00,,,0.00,692.000000,,2014-04-20 19:22:00,
2014-04-20 12:32:00,78.0,39.0,-100.00,NNW,337,8.0,16.0,25,0.00,,,0.00,692.000000,,2014-04-20 19:32:00,
2014-04-20 12:42:00,78.0,39.0,-100.00,NNW,337,8.0,16.0,25,0.00,,,0.00,692.000000,,2014-04-20 19:42:00,
2014-04-20 12:52:00,78.0,39.0,-100.00,NNW,337,8.0,16.0,25,0.00,,,0.00,692.000000,,2014-04-20 19:52:00,
2014-04-20 13:22:00,81.0,39.0,-100.00,NNW,346,9.0,15.0,22,0.00,,,0.00,771.000000,,2014-04-20 20:22:00,
2014-04-20 13:32:00,81.0,39.0,-100.00,NNW,346,9.0,15.0,22,0.00,,,0.00,771.000000,,2014-04-20 20:32:00,
2014-04-20 13:42:00,81.0,39.0,-100.00,NNW,346,9.0,15.0,22,0.00,,,0.00,771.000000,,2014-04-20 20:42:00,
2014-04-20 13:52:00,81.0,39.0,-100.00,NNW,346,9.0,15.0,22,0.00,,,0.00,771.000000,,2014-04-20 20:52:00,
2014-04-20 14:21:00,83.0,34.0,-100.00,North,349,7.0,13.0,17,0.00,,,0.00,786.000000,,2014-04-20 21:21:00,
2014-04-20 14:33:00,83.0,34.0,-100.00,North,349,7.0,13.0,17,0.00,,,0.00,786.000000,,2014-04-20 21:33:00,
2014-04-20 14:43:00,83.0,34.0,-100.00,North,349,7.0,13.0,17,0.00,,,0.00,786.000000,,2014-04-20 21:43:00,
2014-04-20 14:53:00,83.0,34.0,-100.00,North,349,7.0,13.0,17,0.00,,,0.00,786.000000,,2014-04-20 21:53:00,
2014-04-20 15:23:00,85.0,30.0,-100.00,SE,140,4.0,10.0,14,0.00,,,0.00,737.000000,,2014-04-20 22:23:00,
2014-04-20 15:32:00,85.0,30.0,-100.00,SE,140,4.0,10.0,14,0.00,,,0.00,737.000000,,2014-04-20 22:32:00,
2014-04-20 15:42:00,85.0,30.0,-100.00,SE,140,4.0,10.0,14,0.00,,,0.00,737.000000,,2014-04-20 22:42:00,
2014-04-20 15:53:00,85.0,30.0,-100.00,SE,140,4.0,10.0,14,0.00,,,0.00,737.000000,,2014-04-20 22:53:00,
2014-04-20 16:22:00,86.0,33.0,-100.00,WNW,293,3.0,7.0,15,0.00,,,0.00,638.000000,,2014-04-20 23:22:00,
2014-04-20 16:33:00,86.0,33.0,-100.00,WNW,293,3.0,7.0,15,0.00,,,0.00,638.000000,,2014-04-20 23:33:00,
2014-04-20 16:42:00,86.0,33.0,-100.00,WNW,293,3.0,7.0,15,0.00,,,0.00,638.000000,,2014-04-20 23:42:00,
2014-04-20 16:52:00,86.0,33.0,-100.00,WNW,293,3.0,7.0,15,0.00,,,0.00,638.000000,,2014-04-20 23:52:00,